Location: Fours
(44.3167°N, 6.7000°E)
Time: 12:56:35
(UTC+00:00)

X-37B - Pass Details

Date: 30 November 2020
Orbit: 383 x 391 km, 45.1° (Epoch: 22 January)

Event Time Altitude Azimuth Distance (km) Brightness Sun altitude
Rises 16:41:37 0° 233° (SW) 2,250 6.3 -8.2°
Reaches altitude 10° 16:43:45 10° 225° (SW) 1,401 4.6 -8.5°
Maximum altitude 16:46:42 37° 155° (SSE) 610 1.5 -9.0°
Enters shadow 16:49:18 13° 89° (E) 1,267 2.6 -9.5°
